GW5534 Weather Reports


time (UTC)temp
C
wind
direction
speed
KPH
gust
KPH
rain 1hr
cm
rain 24hr
cm
rain mn
cm
humidity
%
barometer
mb
20260906183502 31 158 4.8 9.7 0.00 0.00 0.00 64 1015.3
20260906182503 30 153 4.8 11.3 0.00 0.00 0.00 63 1015.4
20260906181503 30 139 6.4 17.7 0.00 0.00 0.00 63 1015.5
20260906180503 30 144 6.4 14.5 0.00 0.00 0.00 63 1015.5
20260906175502 30 126 6.4 14.5 0.00 0.00 0.00 62 1015.5
20260906174503 30 164 6.4 17.7 0.00 0.00 0.00 65 1015.6
20260906173502 30 135 6.4 16.1 0.00 0.00 0.00 67 1015.7
20260906172503 29 138 4.8 11.3 0.00 0.00 0.00 72 1015.8
20260906171503 28 132 6.4 12.9 0.00 0.00 0.00 75 1016.0
20260906170618 28 153 8.0 17.7 0.00 0.00 0.00 77 1016.1
20260906165503 28 146 6.4 14.5 0.00 0.00 0.00 81 1016.3
20260906164617 27 149 4.8 14.5 0.00 0.00 0.00 81 1016.3
20260906163503 27 131 4.8 11.3 0.00 0.00 0.00 84 1016.3
20260906162503 26 140 4.8 9.7 0.00 0.00 0.00 84 1016.5
20260906161618 26 83 1.6 4.8 0.00 0.00 0.00 84 1016.6
20260906160503 26 83 1.6 4.8 0.00 0.00 0.00 83 1016.8
20260906155618 26 79 3.2 6.4 0.00 0.00 0.00 80 1016.8
20260906154618 26 59 1.6 4.8 0.00 0.00 0.00 80 1016.8
20260906153503 26 168 3.2 6.4 0.00 0.00 0.00 78 1016.7
20260906152503 26 146 3.2 9.7 0.00 0.00 0.00 82 1016.5
20260906151503 27 200 1.6 6.4 0.00 0.00 0.00 80 1017.1
20260906150503 27 209 3.2 9.7 0.00 0.00 0.00 79 1016.9
20260906145503 27 165 6.4 16.1 0.00 0.00 0.00 79 1016.4
20260906144503 27 155 6.4 14.5 0.00 0.00 0.00 80 1016.1
20260906143503 27 143 4.8 14.5 0.00 0.00 0.00 81 1016.0
20260906142503 26 128 4.8 12.9 0.00 0.00 0.00 82 1016.0
20260906141502 26 129 4.8 9.7 0.00 0.00 0.00 82 1016.0
20260906140503 26 127 4.8 12.9 0.00 0.00 0.00 82 1016.2
20260906135503 26 133 4.8 11.3 0.00 0.00 0.00 82 1016.2
20260906134503 26 143 6.4 16.1 0.00 0.00 0.00 82 1016.2
20260906133503 26 139 8.0 16.1 0.00 0.00 0.00 82 1016.2
20260906132504 26 144 4.8 12.9 0.00 0.00 0.00 82 1016.2
20260906131503 26 120 3.2 9.7 0.00 0.00 0.00 83 1016.2
20260906130503 26 123 3.2 11.3 0.00 0.00 0.00 84 1016.1
20260906125503 26 133 3.2 8.0 0.00 0.00 0.00 84 1016.1
20260906124502 25 139 4.8 14.5 0.00 0.00 0.00 85 1016.0
20260906123502 25 136 4.8 11.3 0.00 0.00 0.00 85 1015.8
20260906122617 25 133 3.2 9.7 0.00 0.00 0.00 85 1015.7
20260906121502 25 149 3.2 6.4 0.00 0.00 0.00 85 1015.6
20260906120503 25 144 3.2 11.3 0.00 0.00 0.00 85 1015.4
20260906115502 25 153 4.8 9.7 0.00 0.00 0.00 85 1015.4
20260906114502 25 141 4.8 12.9 0.00 0.00 0.00 85 1015.2
20260906113502 25 141 4.8 12.9 0.00 0.00 0.00 85 1015.1
20260906112503 25 129 3.2 11.3 0.00 0.00 0.00 85 1015.0
20260906111618 25 112 1.6 6.4 0.00 0.00 0.00 84 1015.2
20260906110503 25 114 1.6 6.4 0.00 0.00 0.00 84 1015.2
20260906105618 25 150 3.2 8.0 0.00 0.00 0.00 84 1015.2
20260906104503 25 162 1.6 6.4 0.00 0.00 0.00 84 1015.2
20260906103620 25 144 1.6 6.4 0.00 0.00 0.00 85 1015.0
20260906102503 25 114 0.0 4.8 0.00 0.00 0.00 84 1014.9
20260906101503 25 111 1.6 6.4 0.00 0.00 0.00 84 1014.8
20260906100503 25 134 1.6 6.4 0.00 0.00 0.00 85 1014.9
20260906095503 25 81 1.6 3.2 0.00 0.00 0.00 85 1014.7
20260906094504 25 90 1.6 9.7 0.00 0.00 0.00 85 1014.8
20260906093503 25 128 1.6 6.4 0.00 0.00 0.00 84 1014.9
20260906092618 25 131 1.6 6.4 0.00 0.00 0.00 85 1014.8
20260906091503 25 112 1.6 4.8 0.00 0.00 0.00 84 1014.8
20260906090503 25 110 0.0 4.8 0.00 0.00 0.00 84 1014.9
20260906085503 25 96 0.0 3.2 0.00 0.00 0.00 83 1015.0
20260906084502 25 134 0.0 3.2 0.00 0.00 0.00 82 1014.9
20260906083503 26 150 0.0 3.2 0.00 0.00 0.00 81 1014.8
20260906082503 26 160 0.0 3.2 0.00 0.00 0.00 80 1014.7
20260906081503 26 126 1.6 8.0 0.00 0.00 0.00 79 1014.7
20260906080504 26 166 1.6 9.7 0.00 0.00 0.00 79 1014.7
20260906075503 26 149 3.2 12.9 0.00 0.00 0.00 77 1014.7
20260906074503 26 151 3.2 12.9 0.00 0.00 0.00 76 1014.5
20260906073618 26 135 3.2 11.3 0.00 0.00 0.00 76 1014.5
20260906072503 27 149 4.8 9.7 0.00 0.00 0.00 76 1014.5
20260906071504 27 149 4.8 12.9 0.00 0.00 0.00 76 1014.6
20260906070503 27 152 4.8 16.1 0.00 0.00 0.00 76 1014.7
20260906065503 27 140 4.8 8.0 0.00 0.00 0.00 76 1014.7
20260906064502 27 129 4.8 12.9 0.00 0.00 0.00 76 1014.8
20260906063503 27 143 3.2 11.3 0.00 0.00 0.00 76 1014.9
20260906062618 27 141 3.2 6.4 0.00 0.00 0.00 76 1014.9
20260906061506 27 125 1.6 9.7 0.00 0.00 0.00 77 1015.0
20260906060503 27 130 1.6 3.2 0.00 0.00 0.00 76 1015.0
20260906055503 27 118 1.6 6.4 0.00 0.00 0.00 76 1014.9
20260906054503 27 141 1.6 12.9 0.00 0.00 0.00 74 1014.9
20260906053503 27 136 3.2 11.3 0.00 0.00 0.00 74 1015.0
20260906052503 27 99 3.2 9.7 0.00 0.00 0.00 74 1014.9
20260906051502 27 112 1.6 9.7 0.00 0.00 0.00 73 1014.9
20260906050503 28 96 3.2 6.4 0.00 0.00 0.00 71 1015.0
20260906045503 28 98 3.2 11.3 0.00 0.00 0.00 71 1015.0
20260906044502 28 82 3.2 11.3 0.00 0.00 0.00 71 1014.9
20260906043618 28 107 3.2 14.5 0.00 0.00 0.00 71 1014.9
20260906042503 28 98 3.2 11.3 0.00 0.00 0.00 71 1014.9
20260906041503 28 114 1.6 9.7 0.00 0.00 0.00 71 1014.9
20260906040618 28 81 3.2 14.5 0.00 0.00 0.00 70 1015.0
20260906035503 28 94 3.2 12.9 0.00 0.00 0.00 71 1015.0
20260906034503 29 94 3.2 9.7 0.00 0.00 0.00 70 1015.0
20260906033503 29 88 3.2 8.0 0.00 0.00 0.00 70 1014.9
20260906032503 29 95 3.2 9.7 0.00 0.00 0.00 70 1014.7
20260906031503 29 102 3.2 12.9 0.00 0.00 0.00 70 1014.7
20260906030503 29 102 1.6 8.0 0.00 0.00 0.00 69 1014.5
20260906025503 30 87 3.2 12.9 0.00 0.00 0.00 68 1014.4
20260906024503 30 100 3.2 9.7 0.00 0.00 0.00 68 1014.2
20260906023503 30 88 4.8 12.9 0.00 0.00 0.00 67 1014.0
20260906022618 30 93 3.2 8.0 0.00 0.00 0.00 67 1014.0
20260906021617 30 81 3.2 12.9 0.00 0.00 0.00 67 1013.9
20260906020503 30 92 4.8 12.9 0.00 0.00 0.00 67 1013.7
20260906015617 30 81 3.2 12.9 0.00 0.00 0.00 66 1013.5
20260906014503 30 89 3.2 8.0 0.00 0.00 0.00 65 1013.3
20260906013618 30 94 1.6 6.4 0.00 0.00 0.00 65 1013.2
20260906012503 30 99 1.6 6.4 0.00 0.00 0.00 64 1013.1
20260906011503 31 76 1.6 6.4 0.00 0.00 0.00 64 1013.2
20260906010503 31 112 3.2 9.7 0.00 0.00 0.00 63 1012.9
20260906005503 31 99 3.2 6.4 0.00 0.00 0.00 62 1012.9
20260906004503 31 109 3.2 11.3 0.00 0.00 0.00 62 1013.0
20260906003503 32 83 3.2 9.7 0.00 0.00 0.00 60 1012.9
20260906002502 32 102 3.2 14.5 0.00 0.00 0.00 59 1012.9
20260906001503 32 130 4.8 11.3 0.00 0.00 0.00 59 1012.6
20260906000503 32 134 6.4 17.7 0.00 0.00 0.00 59 1012.5
20260905235503 32 132 6.4 14.5 0.00 0.00 0.00 58 1012.5
20260905234503 32 132 4.8 17.7 0.00 0.00 0.00 58 1012.5
20260905233618 32 125 3.2 9.7 0.00 0.00 0.00 57 1012.6
20260905232618 32 102 4.8 17.7 0.00 0.00 0.00 57 1012.6
20260905231503 33 104 4.8 11.3 0.00 0.00 0.00 56 1012.6
20260905230503 33 136 4.8 12.9 0.00 0.00 0.00 56 1012.6
20260905225502 33 103 4.8 12.9 0.00 0.00 0.00 56 1012.7
20260905224504 33 140 9.7 17.7 0.00 0.00 0.00 55 1012.6
20260905223502 33 131 8.0 16.1 0.00 0.00 0.00 54 1012.5
20260905222503 33 156 8.0 22.5 0.00 0.00 0.00 54 1012.3
20260905221503 32 158 11.3 24.1 0.00 0.00 0.00 54 1012.3
20260905220503 32 149 8.0 16.1 0.00 0.00 0.00 54 1012.3
20260905215503 32 144 6.4 17.7 0.00 0.00 0.00 53 1012.5
20260905214618 33 133 6.4 17.7 0.00 0.00 0.00 52 1012.6
20260905213502 32 142 6.4 19.3 0.00 0.00 0.00 53 1012.5
20260905212618 32 135 8.0 22.5 0.00 0.00 0.00 52 1012.7
20260905211503 32 134 6.4 24.1 0.00 0.00 0.00 53 1012.9
20260905210503 32 100 8.0 16.1 0.00 0.00 0.00 53 1013.2
20260905205503 32 106 6.4 17.7 0.00 0.00 0.00 53 1013.3
20260905204503 32 117 8.0 19.3 0.00 0.00 0.00 51 1013.3
20260905203503 32 115 8.0 17.7 0.00 0.00 0.00 51 1013.6
20260905202502 32 132 8.0 17.7 0.00 0.00 0.00 52 1013.9
20260905201618 32 94 6.4 19.3 0.00 0.00 0.00 53 1014.1
20260905200503 32 113 6.4 20.9 0.00 0.00 0.00 53 1014.3
20260905195503 32 107 8.0 17.7 0.00 0.00 0.00 54 1014.6
20260905194618 32 90 8.0 19.3 0.00 0.00 0.00 54 1014.8
20260905193502 32 105 6.4 22.5 0.00 0.00 0.00 54 1014.9
20260905192618 32 90 6.4 19.3 0.00 0.00 0.00 58 1014.9
20260905191502 32 99 8.0 22.5 0.00 0.00 0.00 56 1015.0
20260905190502 31 67 8.0 22.5 0.00 0.00 0.00 57 1015.3
20260905185621 31 91 9.7 24.1 0.00 0.00 0.00 56 1015.6
20260905184618 31 71 9.7 22.5 0.00 0.00 0.00 56 1015.8